Tracking 30923 objects as of 1-Jul-2025
HD Live streaming from Space Station
objects crossing your sky now

DELTA 1 DEB

Track DELTA 1 DEB now!
10-day predictions


NORAD ID: 10251
Int'l Code: 1977-065CC
Perigee: 463.3 km
Apogee: 1,454.8 km
Inclination: 29.0 °
Period: 104.1 minutes
Semi major axis: 7330 km
RCS: 0.0179 m2 (small)
Launch date: July 14, 1977
Source: United States (US)
Launch site: AIR FORCE EASTERN TEST RANGE (AFETR)

Note: This is SATELLITE DEBRIS
Your satellite tracking list
BREEZE-M DEB
Track 1 satellite(s)




NASA's NSSDC Master Catalog

Two Line Element Set (TLE):
1 10251U 77065CC  25181.52069807  .00002165  00000-0  27929-3 0  9994
2 10251  28.9778 288.5023 0676359 257.4942  94.9190 13.83381642368490
Source of the keplerian elements: AFSPC